EHI
0 0 0 0 0 0 0 0 0 0 0 0 0 0 0 0 0 0 0 0 0 0 0 0 0 0 0 0 0 0 0 0 0 0 0 0 0 0
0 0 0 0 0 0 0 0 0 0 0 0 0 0 0 0 0 0 0 0 0 0 0 0 0 0 0 0 0 0 0 0 0 0 0 0 0 0
0 0 0 0 0 0 0 0 0 0 0 0 0 0 0 0 0 0 0 0 0 0 0 0 0 0 0 0 0 0 0 0 0 0 0 0 0 0
0 0 0 0 0 0 0 0 0 0 0 0 0 0 0 0 0 0 0 0 0 0 0 0 0 0 0 0 0 0 0 0 0 0 0 0 0 0
0 0 0 0 0 0 0 0 0 0 0 0 0 0 0 0 0 0 0 0 0 0 0 0 0 0 0 0 0 0 0 0 0 0 0 0 0 0
0 0 0 0 0 0 0 0 0 0 0 0 0 0 0 0 0 0 0 0 0 0 0 0 0 0 0 0 0 0 0 0 0 0 0 0 0 0
0 0 0 0 0 0 0 0 0 0 0 0 0 0 0 0 0 0 0 0 0 0 0 0 0 0 0 0 0 0 0 0 0 0 0 0 0 0
0 0 0 0 0 0 0 0 0 0 0 0 0 0 0 0 0 0 0 0 0 0 0 0 0 0 0 0 0 0 0 0 0 0 0 0 0 0
0 0 0 0 0 0 0 0 0 0 0 0 0 0 0 0 0 0 0 0 0 0 0 0 0 0 0 0 0 0 0 0 0 0 0 0 0 0
0 0 0 0 0 0 0 0 0 0 0 0 0 0 0 0 0 0 0 0 0 0 0 0 0 0 0 0 0 0 0 0 0 0 0 0 0 0
0 0 0 0 0 0 0 0 0 0 0 0 0 0 0 0 0 0 0 0 0 0 0 0 0 0 0 0 0 0 0 0 0 0 0 0 0 0
0 0 0 0 0 0 0 0 0 0 0 0 0 0 0 0 0 0 0 0 0 0 0 0 0 0 0 0 0 0 0 0 0 0 0 0 0 0
0 0 0 0 0 0 0 0 0 0 0 0 0 0 0 0 0 0 0 0 0 0 0 0 0 0 0 0 0 0 0 0 0 0 0 0 0 0
0 0 0 0 0 0 0 0 0 0 0 0 0 0 0 0 0 0 0 0 0 0 0 0 0 0 0 0 0 0 0 0 0 0 0 0 0 0
0 0 0 0 0 0 0 0 0 0 0 0 0 0 0 0 0 0 0 0 0 0 0 0 0 0 0 0 0 0 0 0 0 0 0 0 0 0
0 0 0 0 0 0 0 0 0 0 0 0 0 0 0 0 0 0 0 0 0 0 0 0 0 0 0 0 0 0 0 0 0 0 0 0 0 0
0 0 0 0 0 0 0 0 0 0 0 0 0 0 0 0 0 0 0 0 0 0 0 0 0 0 0 0 0 0 0 0 0 0 0 0 0 0
0 0 0 0 0 0 0 0 0 0 0 0 0 0 0 0 0 0 0 0 0 0 0 0 0 0 0 0 0 0 0 0 0 0 0 0 0 0
0 0 0 0 0 0 0 0 0 0 0 0 0 0 0 0 0 0 0 0 0 0 0 0 0 0 0 0 0 0 0 0 0 0 0 0 0 0
0 0 0 0 0 0 0 0 0 0 0 0 0 0 0 0 0 0 0 0 0 0 0 0 0 0 0 0 0 0 0 0 0 0 0 0 0 0
0 0 0 0 0 0 0 0 0 0 0 0 0 0 0 0 0 0 0 0 0 0 0 0 0 0 0 0 0 0 0 0 0 0 0 0 0 0
0 0 0 0 0 0 0 0 0 0 0 0 0 0 0 0 0 0 0 0 0 0 0 0 0 0 0 0 0 0 0 0 0 0 0 0 0 0
0 0 0 0 0 0 0 0 0 0 0 0 0 0 0 0 0 0 0 0 0 0 0 0 0 0 0 0 0 0 0 0 0 0 0 0 0 0
Wind_Speed
0 1 0 0 0 0 1 1 2 3 2 3 2 2 2 2 5 4 4 9 10 11 12 12 13 12 10 10 9 7 6 6 4 1 3 6 9 11
0 1 1 0 1 1 1 1 1 2 2 2 2 1 2 2 5 4 4 8 10 10 11 12 12 12 12 11 11 10 8 6 3 2 0 3 5 7
1 2 1 1 1 1 1 1 1 0 1 2 2 2 2 2 2 3 3 4 4 9 10 11 12 12 13 13 13 13 11 10 8 6 3 3 3 3
2 2 2 2 2 2 2 2 1 1 1 2 2 1 2 1 2 2 3 3 3 8 9 10 10 11 11 12 13 13 12 12 12 10 8 6 5 4
2 2 2 2 2 2 2 2 1 1 1 2 2 1 1 1 2 2 2 3 3 6 8 8 9 10 10 11 12 12 12 11 11 11 11 9 8 7
4 3 3 3 2 2 2 2 1 1 2 2 2 2 1 2 2 2 2 2 3 4 6 6 8 9 10 10 10 11 11 11 11 11 10 10 9 8
4 3 3 3 4 3 2 1 1 1 2 2 2 1 1 1 1 1 1 2 2 3 3 3 4 3 5 7 8 9 9 9 9 9 9 8 8 7
4 3 2 3 4 5 5 4 3 2 2 2 2 2 1 1 0 1 1 1 2 2 3 3 3 2 3 3 6 7 7 7 7 7 7 7 6 6
4 3 2 2 3 3 4 6 5 5 3 3 3 2 2 2 2 1 0 1 1 2 2 2 2 2 2 4 7 5 5 6 6 6 6 6 5 5
3 3 3 2 2 3 2 2 2 2 2 2 3 3 3 3 3 2 2 1 2 1 1 1 2 2 3 4 6 4 5 5 6 6 5 5 5 5
2 3 3 2 4 5 3 2 1 1 1 4 4 3 4 4 4 2 1 1 1 1 2 1 2 3 3 3 4 7 7 6 6 6 6 6 6 6
2 2 5 5 5 5 4 3 2 1 0 1 1 2 2 2 2 3 3 2 1 1 2 1 2 3 3 3 2 3 4 6 7 7 8 8 7 3
3 3 3 7 7 6 5 4 5 3 2 2 1 0 0 0 0 1 2 3 3 3 1 1 0 1 1 4 3 2 2 2 3 5 7 9 9 5
4 3 4 8 8 7 4 5 6 4 2 2 1 1 1 2 2 2 2 2 3 4 3 2 2 2 0 2 4 3 2 2 2 3 3 6 7 9
5 8 9 10 8 5 7 7 5 2 2 2 2 2 2 2 2 1 1 2 2 3 3 4 4 3 3 3 4 3 4 3 2 2 2 2 3 3
5 7 10 10 7 6 6 4 2 3 3 3 3 2 2 2 2 2 2 1 1 2 2 3 5 5 4 5 5 5 4 4 3 2 4 5 4 4
4 2 2 2 3 3 3 3 3 3 3 3 3 3 3 3 3 2 2 2 2 2 2 2 3 4 6 5 5 7 6 6 5 4 4 5 5 5
8 4 5 5 5 5 5 4 4 5 4 4 4 4 3 3 3 2 2 3 3 3 3 2 1 2 2 5 10 8 6 5 4 4 3 5 7 4
8 6 6 6 6 6 5 5 5 5 4 4 5 4 4 4 3 3 3 3 4 4 4 3 2 2 3 5 5 8 5 3 3 3 4 5 7 7
6 7 7 7 6 6 6 6 5 4 4 4 5 5 5 4 4 4 4 5 4 4 4 3 4 5 5 5 5 4 7 6 4 5 5 5 7 11
8 8 7 7 7 7 6 6 6 5 5 5 5 5 5 5 5 5 5 8 7 5 6 5 6 8 4 3 6 6 5 9 10 6 5 5 7 6
8 8 7 7 7 6 6 6 6 6 6 6 6 5 5 5 6 6 6 6 6 6 7 5 3 3 4 6 9 10 8 6 9 16 18 14 7 5
8 7 7 7 7 6 6 7 7 6 6 6 6 6 6 5 5 6 6 6 6 6 6 5 4 4 6 7 9 10 11 10 7 8 9 14 20 25
Wind_Direction
263 291 264 307 343 291 266 232 223 229 208 144 120 48 42 47 47 39 26 25 28 27 25 22 19 17 15 14 15 7 356 347 340 321 202 203 208 209
72 77 63 44 38 12 330 301 259 230 203 121 114 96 51 58 53 42 30 28 27 28 27 25 25 25 28 29 27 22 16 16 13 12 156 184 198 202
90 99 77 57 58 23 9 15 9 265 187 115 105 100 74 53 35 31 31 23 10 24 27 29 30 31 31 33 33 33 35 37 38 35 50 88 115 144
116 105 87 81 68 42 35 38 29 15 144 145 120 108 84 63 45 37 26 21 8 16 24 26 29 31 32 34 36 36 36 37 37 39 47 58 73 88
106 103 92 96 80 60 54 44 20 19 51 123 121 103 83 62 53 33 27 12 6 13 18 20 24 31 35 37 37 37 36 37 39 44 47 52 58 64
92 91 87 96 104 91 65 42 35 59 73 101 109 99 84 56 63 36 10 5 359 360 7 13 19 25 28 33 34 34 35 37 41 45 48 49 49 51
98 86 87 99 112 109 102 73 76 90 96 104 111 104 93 66 55 10 359 334 341 3 347 356 1 3 6 11 21 26 29 33 37 39 42 44 44 44
127 103 86 71 81 82 88 87 99 122 142 133 133 144 145 130 101 42 23 7 315 345 0 339 1 354 338 332 358 20 27 32 34 34 32 30 28 24
149 149 140 115 89 68 66 57 47 60 108 150 150 163 164 175 156 135 173 215 263 308 354 325 345 335 321 338 351 17 31 32 29 24 20 16 11 2
158 164 159 155 163 144 112 79 45 27 63 99 136 156 167 175 177 178 191 234 293 333 25 321 331 319 320 330 342 15 25 20 14 9 5 2 356 345
180 182 177 192 204 163 138 131 84 351 75 132 146 164 174 174 164 126 107 72 347 335 9 9 332 322 317 320 340 4 4 357 354 355 353 348 337 338
205 215 209 206 213 182 158 165 188 222 202 75 61 42 37 23 108 141 151 141 178 284 333 24 355 359 333 312 322 340 352 348 351 348 342 333 325 335
202 213 231 223 217 211 189 186 211 197 181 181 202 266 327 99 132 155 162 158 171 232 244 103 39 14 326 307 312 317 332 324 332 331 334 328 320 314
202 206 221 226 224 225 211 209 222 192 162 183 205 217 219 229 228 217 209 200 199 213 212 160 184 186 202 300 293 309 310 296 300 303 311 320 322 320
206 212 217 226 226 229 230 230 224 182 177 205 220 222 216 216 202 218 248 243 254 248 222 194 190 192 194 229 269 287 308 299 288 290 298 301 298 302
207 220 223 227 221 219 234 240 208 195 198 211 219 216 192 184 200 199 211 229 289 294 258 208 201 192 216 234 246 263 253 273 290 284 292 287 274 261
175 181 195 205 215 215 220 225 219 219 224 208 209 213 212 208 214 201 200 197 215 249 275 269 226 215 223 227 251 255 257 256 260 272 284 288 275 254
199 197 209 215 220 222 223 224 219 219 217 211 211 214 216 215 222 212 203 210 233 244 247 249 274 311 295 257 232 249 255 257 258 249 242 275 287 269
210 209 215 217 220 220 218 218 221 218 208 207 212 212 212 215 216 220 221 229 241 247 244 225 204 204 261 282 276 226 223 244 256 256 241 246 272 280
212 215 218 218 218 219 219 219 221 216 208 210 212 211 207 209 215 221 223 228 242 251 251 228 214 212 225 247 266 267 229 232 247 263 266 263 267 278
217 220 219 217 217 218 218 217 215 215 211 207 212 212 208 207 219 223 226 241 243 244 250 245 232 237 233 240 262 264 243 240 243 245 256 275 284 277
219 220 219 217 216 216 215 214 216 218 216 215 216 213 209 209 220 224 225 230 236 240 250 253 231 225 213 237 258 272 279 266 259 265 262 251 249 256
220 219 219 217 216 213 213 215 216 220 217 215 215 214 209 214 220 224 226 229 236 243 250 258 242 228 237 243 257 269 276 281 280 276 265 259 257 257